Location: Heisede
(52.2582°N, 9.8523°E)
Time: 04:43:42
(UTC+00:00)

ARIANE 6 FM1 Upper Stage - Visible Passes

Search period start: 21 April 2026 00:00
Search period end: 01 May 2026 00:00
Orbit: 525 x 604 km, 62.0° (Epoch: 20 April)

Date Brightness Start Highest point End Pass type
(mag) Time Alt. Az. Time Alt. Az. Time Alt. Az.
21 Apr 4.9 19:56:11 10° NW 19:59:16 20° N 20:02:18 10° NE visible
21 Apr 4.0 21:35:34 10° NW 21:39:14 33° NNE 21:40:40 25° ENE visible
21 Apr 4.1 23:14:31 10° NW 23:16:38 29° WNW 23:16:38 29° WNW visible
22 Apr 4.8 19:55:57 10° NW 19:59:03 21° N 20:02:08 10° ENE visible
22 Apr 3.6 21:35:09 10° NW 21:38:56 39° NNE 21:40:04 32° ENE visible
22 Apr 4.3 23:14:11 10° WNW 23:16:01 24° WNW 23:16:01 24° WNW visible
23 Apr 4.7 19:55:39 10° NW 19:58:50 22° N 20:02:00 10° ENE visible
23 Apr 3.2 21:34:43 10° NW 21:38:37 49° NNE 21:39:28 41° ENE visible
23 Apr 4.6 23:13:54 10° WNW 23:15:26 20° WNW 23:15:26 20° WNW visible
24 Apr 4.5 19:55:19 10° NW 19:58:37 24° NNE 20:01:52 10° ENE visible
24 Apr 2.8 21:34:17 10° NW 21:38:16 62° NE 21:38:54 53° E visible
24 Apr 4.8 23:13:43 10° WNW 23:14:52 16° W 23:14:52 16° W visible
25 Apr 4.3 19:54:57 10° NW 19:58:22 26° NNE 20:01:46 10° ENE visible
25 Apr 2.4 21:33:52 10° NW 21:37:52 81° NE 21:38:21 66° ESE visible
25 Apr 5.0 23:13:40 10° WNW 23:14:19 13° W 23:14:19 13° W visible
26 Apr 4.1 19:54:32 10° NW 19:58:06 30° NNE 20:01:37 10° E visible
26 Apr 2.4 21:33:27 10° NW 21:37:27 77° SW 21:37:50 68° S visible
27 Apr 3.8 19:54:06 10° NW 19:57:49 34° NNE 20:01:22 11° E visible
27 Apr 2.7 21:33:04 10° NW 21:36:59 56° SW 21:37:20 54° SSW visible
28 Apr 3.4 19:53:40 10° NW 19:57:29 42° NNE 20:00:53 12° E visible
28 Apr 3.1 21:32:44 10° WNW 21:36:29 41° SW 21:36:51 40° SW visible
29 Apr 3.1 19:53:12 10° NW 19:57:08 52° NE 20:00:26 14° ESE visible
29 Apr 3.6 21:32:27 10° WNW 21:35:58 30° SW 21:36:25 29° SW visible
30 Apr 2.7 19:52:45 10° NW 19:56:45 67° NE 20:00:01 14° ESE visible
30 Apr 4.1 21:32:16 10° WNW 21:35:23 22° WSW 21:36:00 21° SW visible
